This demonstration page uses our WeatherBlox Daily Observations layout. Learn more.

Left ArrowRight Arrow

Hourly Observations for April 3, 2017

Temp ( °F °C ) Dew Point ( °F °C ) Humidity (%) Winds ( mph kmh ) Pressure ( in mb ) Visibility ( mi km ) Precip ( " mm )
12:15 am 00:15 Clear 43 6 37 3 81 81 SSW 5 7 29.74 1007 10 16 0.00 0.00
12:35 am 00:35 Clear 43 6 37 3 81 81 Calm 29.71 1006 7 11 0.00 0.00
12:55 am 00:55 Clear 45 7 39 4 81 81 Calm 29.71 1006 10 16 0.00 0.00
1:15 am 01:15 Clear 45 7 41 5 87 87 Calm 29.71 1006 10 16 0.00 0.00
1:35 am 01:35 Clear 43 6 39 4 87 87 Calm 29.71 1006 2 3 0.00 0.00
1:55 am 01:55 Clear 43 6 39 4 87 87 Calm 29.68 1005 4 6 0.00 0.00
2:15 am 02:15 Mostly Cloudy 43 6 37 3 81 81 Calm 29.68 1005 1 1 0.00 0.00
2:35 am 02:35 Mostly Cloudy 43 6 39 4 87 87 Calm 29.68 1005 5 8 0.00 0.00
2:55 am 02:55 Cloudy 43 6 39 4 87 87 Calm 29.68 1005 1 1 0.00 0.00
3:15 am 03:15 Cloudy 39 4 37 3 93 93 SSW 3 6 29.71 1006 0 0 0.00 0.00
3:35 am 03:35 Cloudy 41 5 37 3 87 87 Calm 29.68 1005 0 0 0.00 0.00
3:55 am 03:55 Cloudy 43 6 39 4 87 87 Calm 29.68 1005 0 0 0.00 0.00
4:15 am 04:15 Cloudy 43 6 39 4 87 87 WNW 6 9 29.68 1005 5 8 0.00 0.00
4:35 am 04:35 Cloudy 43 6 39 4 87 87 WNW 5 7 29.68 1005 0 0 0.00 0.00
4:55 am 04:55 Cloudy 41 5 39 4 93 93 NW 3 6 29.68 1005 5 8 0.00 0.00
5:15 am 05:15 Cloudy 41 5 37 3 87 87 Calm 29.68 1005 0 0 0.00 0.00
5:35 am 05:35 Cloudy 41 5 39 4 93 93 Calm 29.68 1005 1 1 0.00 0.00
5:55 am 05:55 Cloudy 43 6 39 4 87 87 Calm 29.68 1005 1 1 0.00 0.00
6:15 am 06:15 Cloudy 43 6 39 4 87 87 Calm 29.65 1004 1 1 0.00 0.00
6:35 am 06:35 Cloudy 43 6 39 4 87 87 Calm 29.68 1005 5 8 0.00 0.00
6:55 am 06:55 Cloudy 43 6 39 4 87 87 Calm 29.68 1005 0 0 0.00 0.00
7:15 am 07:15 Cloudy 43 6 37 3 81 81 Calm 29.68 1005 5 8 0.00 0.00
7:35 am 07:35 Cloudy 41 5 37 3 87 87 NW 6 9 29.68 1005 5 8 0.00 0.00
7:55 am 07:55 Cloudy 39 4 37 3 93 93 WNW 7 11 29.71 1006 5 8 0.00 0.00
8:15 am 08:15 Cloudy 39 4 36 2 87 87 WNW 7 11 29.71 1006 5 8 0.00 0.00
8:35 am 08:35 Cloudy 39 4 36 2 87 87 WNW 9 15 29.71 1006 0 0 0.00 0.00
8:55 am 08:55 Partly Cloudy 43 6 39 4 87 87 NW 9 15 29.68 1005 10 16 0.00 0.00
9:15 am 09:15 Sunny 45 7 41 5 87 87 NW 12 19 29.68 1005 10 16 0.00 0.00
9:35 am 09:35 Sunny 46 8 43 6 87 87 NNW 12 19 29.68 1005 10 16 0.00 0.00
9:55 am 09:55 Mostly Sunny 46 8 43 6 87 87 NNW 9 15 29.68 1005 10 16 0.00 0.00
10:15 am 10:15 Mostly Cloudy 48 9 43 6 82 82 N 9 15 29.65 1004 10 16 0.00 0.00
10:35 am 10:35 Cloudy 50 10 43 6 76 76 NNW 8 13 29.65 1004 10 16 0.00 0.00
10:55 am 10:55 Cloudy 50 10 43 6 76 76 NW 10 17 29.65 1004 10 16 0.00 0.00
11:15 am 11:15 Cloudy 50 10 43 6 76 76 NNW 10 17 29.65 1004 10 16 0.00 0.00
11:35 am 11:35 Cloudy 50 10 43 6 76 76 NNW 8 13 29.65 1004 10 16 0.00 0.00
11:55 am 11:55 Mostly Cloudy 52 11 43 6 72 72 NNW 9 15 29.65 1004 10 16 0.00 0.00
12:15 pm 12:15 Sunny 55 13 43 6 63 63 N 9 15 29.59 1002 10 16 0.00 0.00
12:35 pm 12:35 Mostly Sunny 57 14 45 7 63 63 N 9 15 29.59 1002 10 16 0.00 0.00
12:55 pm 12:55 Mostly Cloudy 55 13 43 6 63 63 N 6 9 29.59 1002 10 16 0.00 0.00
1:15 pm 13:15 Cloudy 55 13 45 7 67 67 NW 10 17 29.62 1003 10 16 0.00 0.00
1:35 pm 13:35 Cloudy 55 13 43 6 63 63 NW 10 17 29.62 1003 10 16 0.00 0.00
1:55 pm 13:55 Cloudy 54 12 45 7 72 72 NNW 8 13 29.59 1002 10 16 0.00 0.00
2:15 pm 14:15 Cloudy 57 14 45 7 63 63 NW 10 17 29.59 1002 10 16 0.00 0.00
2:35 pm 14:35 Mostly Cloudy 57 14 45 7 63 63 N 9 15 29.59 1002 10 16 0.00 0.00
2:55 pm 14:55 Cloudy 57 14 45 7 63 63 NNW 10 17 29.59 1002 10 16 0.00 0.00
3:15 pm 15:15 Cloudy 57 14 43 6 59 59 NW 12 19 29.59 1002 10 16 0.00 0.00
3:35 pm 15:35 Cloudy 55 13 43 6 63 63 NNW 13 20 29.59 1002 10 16 0.00 0.00
3:55 pm 15:55 Cloudy 54 12 43 6 67 67 NW 16 26 29.65 1004 10 16 0.00 0.00
4:15 pm 16:15 Cloudy 54 12 43 6 67 67 NW 17 28 29.65 1004 10 16 0.00 0.00
4:35 pm 16:35 Cloudy 54 12 43 6 67 67 NW 20 31 29.65 1004 10 16 0.00 0.00
4:55 pm 16:55 Cloudy 52 11 43 6 72 72 NNW 18 30 29.65 1004 10 16 0.00 0.00
5:15 pm 17:15 Cloudy 52 11 43 6 72 72 NW 18 30 29.68 1005 10 16 0.00 0.00
5:35 pm 17:35 Cloudy 52 11 43 6 72 72 NNW 16 26 29.68 1005 10 16 0.00 0.00
5:55 pm 17:55 Cloudy 48 9 41 5 76 76 NNW 17 28 29.68 1005 10 16 0.00 0.00
6:15 pm 18:15 Cloudy 48 9 39 4 71 71 NNW 20 31 29.74 1007 10 16 0.00 0.00
6:35 pm 18:35 Cloudy 48 9 37 3 66 66 NNW 23 37 29.74 1007 10 16 0.00 0.00
6:55 pm 18:55 Cloudy 48 9 37 3 66 66 NNW 22 35 29.74 1007 10 16 0.00 0.00
7:15 pm 19:15 Cloudy 46 8 37 3 71 71 NNW 20 31 29.77 1008 10 16 0.00 0.00
7:35 pm 19:35 Cloudy 46 8 36 2 66 66 NNW 20 31 29.77 1008 10 16 0.00 0.00
7:55 pm 19:55 Cloudy 45 7 36 2 71 71 NNW 17 28 29.77 1008 10 16 0.00 0.00
8:15 pm 20:15 Cloudy 45 7 36 2 71 71 NNW 20 31 29.77 1008 10 16 0.00 0.00
8:35 pm 20:35 Cloudy 45 7 36 2 71 71 NNW 22 35 29.77 1008 10 16 0.00 0.00
8:55 pm 20:55 Cloudy 45 7 36 2 71 71 NNW 16 26 29.80 1009 10 16 0.00 0.00
9:15 pm 21:15 Cloudy 45 7 36 2 71 71 NNW 17 28 29.80 1009 10 16 0.00 0.00
9:35 pm 21:35 Cloudy 45 7 34 1 66 66 NNW 18 30 29.80 1009 10 16 0.00 0.00
9:55 pm 21:55 Cloudy 45 7 34 1 66 66 NNW 17 28 29.83 1010 10 16 0.00 0.00
10:15 pm 22:15 Cloudy 45 7 34 1 66 66 NNW 14 22 29.83 1010 10 16 0.00 0.00
10:35 pm 22:35 Cloudy 45 7 36 2 71 71 NNW 13 20 29.83 1010 10 16 0.00 0.00
10:55 pm 22:55 Cloudy 43 6 34 1 71 71 NNW 14 22 29.88 1012 10 16 0.00 0.00
11:15 pm 23:15 Cloudy 43 6 34 1 71 71 NNW 14 22 29.88 1012 10 16 0.00 0.00
11:35 pm 23:35 Mostly Cloudy 43 6 34 1 71 71 NNW 13 20 29.88 1012 10 16 0.00 0.00
11:55 pm 23:55 Partly Cloudy 41 5 34 1 76 76 NNW 13 20 29.88 1012 10 16 0.00 0.00

Powered by AerisWeather